Theta_e
352 349 344 345 344 340 339 338 340 339 342 342 341 346 345 344 346 346 347 352 350 350 353 355 356 356 359 356 357 356 354 353 352 351 349 349 349 349 348 349 348 348 348
350 349 350 346 344 339 341 339 343 343 341 340 342 349 348 349 349 349 348 349 351 350 352 354 355 357 359 359 357 356 354 353 352 351 350 348 348 348 348 348 348 348 348
354 351 347 350 347 350 349 346 346 347 345 344 343 347 350 350 350 351 352 350 349 351 352 353 354 355 357 359 359 357 354 353 352 351 350 349 348 347 348 348 348 348 348
353 355 349 345 347 351 348 345 342 341 339 339 342 346 347 350 351 351 349 349 347 347 350 352 353 354 355 359 360 359 356 353 351 350 350 350 348 347 347 347 347 347 347
352 354 348 346 348 346 345 343 344 339 337 338 342 346 347 349 349 347 351 351 350 349 346 352 350 351 353 355 359 359 357 354 351 350 350 350 349 348 348 347 347 346 346
354 352 351 349 348 344 342 343 341 342 340 339 337 337 343 348 349 347 350 351 349 350 348 349 349 348 350 352 355 358 359 357 353 351 350 348 348 348 348 347 347 346 346
356 354 353 351 355 346 343 343 341 344 341 344 340 338 340 344 346 349 344 344 346 347 347 348 351 355 351 350 351 353 357 358 356 353 350 347 347 347 347 347 346 346 345
356 357 355 351 352 351 349 348 345 340 344 341 334 336 330 335 344 342 344 344 345 348 348 349 353 353 348 348 348 349 353 357 357 355 351 347 347 347 347 347 346 346 345
356 356 356 353 351 350 345 347 348 343 337 340 341 336 330 326 334 342 343 342 345 346 344 346 348 350 349 348 349 351 349 351 356 357 353 349 348 349 348 347 346 345 345
354 356 355 355 351 351 345 347 347 345 340 334 341 340 343 338 327 326 338 340 345 343 343 344 347 346 347 348 354 351 348 347 352 354 354 352 351 351 350 348 346 344 344
353 354 354 353 354 352 351 349 348 346 342 337 340 339 339 338 337 330 323 331 339 339 341 342 343 345 345 345 345 341 340 342 343 346 348 349 351 351 350 349 347 345 345
350 351 350 353 353 353 351 349 349 347 343 339 340 339 336 333 331 330 326 325 324 328 335 338 344 342 343 343 346 341 337 335 335 336 338 341 344 348 349 349 350 349 348
342 346 348 350 352 352 352 350 347 345 344 342 341 339 338 336 334 332 329 325 324 328 331 335 338 339 341 344 344 341 340 333 329 328 329 332 335 339 341 343 347 348 348
334 339 344 347 348 349 349 350 346 348 346 344 343 342 339 339 338 335 329 326 323 326 329 330 334 335 335 335 337 336 336 332 329 327 326 326 328 331 334 335 338 341 342
340 337 341 345 339 326 337 347 345 344 343 344 343 341 340 342 341 339 335 334 330 322 324 329 327 332 331 333 338 340 340 337 331 327 325 324 325 326 328 329 331 334 335
338 341 343 343 340 338 339 346 345 342 339 338 338 340 341 341 341 341 339 338 336 329 324 329 330 332 338 338 339 340 338 333 331 327 326 325 324 323 324 325 326 328 331
335 338 340 343 342 341 341 339 338 335 334 332 335 338 341 342 340 339 340 337 334 332 326 329 332 333 334 334 336 340 339 339 338 329 327 325 322 321 321 322 322 324 328
322 319 323 336 340 339 337 330 330 334 333 331 334 336 338 340 340 340 339 335 334 333 329 325 329 331 333 334 336 337 339 340 340 334 326 324 322 319 319 320 319 320 322
318 317 316 316 319 336 336 333 331 332 325 334 336 338 337 337 334 335 336 334 332 333 330 327 327 331 332 333 332 334 335 335 338 334 326 324 322 320 318 317 318 319 319
317 314 316 317 317 330 334 335 334 333 332 333 336 335 335 335 334 335 336 331 332 329 328 326 326 327 328 330 331 328 327 333 332 336 332 331 325 323 321 318 318 319 315
318 316 316 317 318 319 328 330 331 332 333 331 335 334 334 328 326 329 330 326 323 321 320 318 316 317 318 323 324 326 326 328 328 332 331 332 331 329 326 318 322 321 316
316 318 317 317 317 318 309 310 317 330 330 329 329 328 318 314 312 310 310 309 315 315 314 314 312 311 314 316 320 325 325 323 321 330 329 327 331 332 332 326 319 317 314
316 314 315 317 316 318 308 305 306 326 328 327 326 325 319 319 318 315 310 309 308 308 311 318 317 317 317 319 320 319 320 324 324 329 327 326 329 325 333 335 318 317 312
317 316 315 315 315 319 305 304 303 313 327 326 326 326 324 322 321 321 319 317 318 320 314 313 315 317 321 324 326 325 323 323 327 329 329 322 328 325 330 326 316 314 313
315 317 317 316 315 319 304 304 309 315 313 324 326 327 326 323 311 310 321 319 318 319 316 309 308 306 301 301 304 311 314 316 316 320 328 325 325 327 330 324 321 314 311
312 316 318 320 314 320 303 302 308 313 312 319 325 326 311 321 303 306 320 319 317 318 320 319 318 314 311 315 306 310 317 318 318 318 326 324 323 323 323 329 323 317 313
Wind_Speed
6 5 6 8 10 8 8 6 7 8 6 4 5 6 6 5 2 2 3 13 13 12 12 11 11 10 11 12 12 12 11 11 10 10 9 9 9 9 9 9 10 11 12
8 7 5 5 6 7 9 8 6 5 4 3 6 6 3 3 3 4 3 5 13 12 13 13 12 11 11 12 13 13 12 12 11 11 11 10 10 10 10 11 11 12 12
6 6 6 4 5 5 6 7 5 5 4 4 5 3 4 6 6 7 4 3 5 12 12 12 13 13 13 13 14 14 13 12 12 12 11 11 11 11 12 11 12 13 13
10 6 5 7 5 4 4 3 4 4 5 5 5 6 6 7 6 5 4 4 4 2 10 13 12 13 14 15 15 14 14 13 12 12 11 12 12 12 13 13 13 14 13
12 6 6 5 6 4 5 5 3 4 4 6 6 5 5 4 4 3 2 3 3 4 3 10 14 13 14 15 15 16 15 14 13 13 13 13 13 13 14 13 14 14 14
15 11 8 7 8 7 7 8 9 8 5 5 4 3 5 4 5 4 5 4 4 6 3 4 4 6 14 16 15 16 16 15 15 14 14 14 14 13 14 15 15 16 16
15 15 10 11 7 9 11 8 7 4 3 3 2 2 2 4 4 3 3 4 5 3 4 3 3 4 5 13 15 16 17 18 17 15 15 14 14 16 18 18 18 18 17
14 12 14 12 12 9 10 9 10 6 4 6 4 3 3 3 3 5 4 2 5 3 5 7 5 5 4 4 8 14 16 18 17 18 17 15 15 17 18 21 17 16 17
15 16 16 13 13 13 10 11 10 12 9 5 7 6 4 5 4 4 6 4 6 4 2 4 6 7 5 5 6 11 16 16 18 17 17 15 17 18 18 20 15 15 16
20 20 18 17 16 13 15 12 11 10 8 9 7 10 6 3 5 4 3 5 5 4 5 3 3 1 4 3 6 9 13 15 16 16 15 15 17 18 18 18 14 15 16
20 19 20 19 17 15 17 16 15 15 12 10 10 10 9 4 3 2 4 4 3 4 5 5 5 5 2 5 5 6 9 13 13 13 13 14 16 17 20 20 17 18 18
12 11 17 18 22 18 15 15 15 16 14 14 11 10 9 7 6 4 3 3 4 4 4 4 5 5 5 4 7 9 7 7 11 13 13 13 14 16 17 18 17 18 18
13 16 25 23 16 16 17 14 14 15 16 13 14 10 7 7 6 6 7 5 5 5 5 4 4 3 3 4 5 11 10 8 12 10 10 11 12 14 14 13 15 18 17
13 18 14 17 24 20 14 15 12 12 16 14 12 9 8 6 4 3 5 5 4 3 2 3 1 3 3 4 7 14 12 11 13 13 13 10 12 14 15 12 13 15 14
12 18 23 9 11 12 26 20 12 15 14 13 13 12 10 6 4 4 4 4 5 6 6 5 5 6 7 5 6 6 10 12 14 13 11 12 12 14 14 13 13 14 15
15 17 18 14 15 23 37 23 15 14 13 10 11 12 12 7 5 4 3 3 4 5 8 3 4 5 6 4 6 6 7 10 10 13 13 13 12 15 13 12 14 15 16
15 15 19 18 12 19 19 11 11 5 4 6 17 9 9 6 4 4 2 4 5 5 8 8 4 3 4 4 6 5 5 7 5 10 10 12 13 14 14 12 14 15 15
11 15 23 22 17 10 7 13 10 15 11 22 24 15 8 5 7 5 3 5 4 4 6 11 6 5 6 4 7 7 5 4 5 8 11 14 14 12 13 16 15 10 13
8 11 14 21 33 21 15 16 22 16 21 27 14 10 8 7 5 3 3 4 5 5 7 8 9 5 4 4 6 7 6 5 4 10 13 16 17 13 11 12 12 13 12
7 7 9 13 28 13 14 18 17 14 14 7 8 9 8 7 7 6 5 5 3 4 5 5 7 5 4 5 5 6 5 3 6 5 9 10 5 6 9 11 12 12 11
6 3 5 9 23 26 7 13 11 8 6 4 5 7 7 7 8 8 4 3 4 1 2 4 3 3 3 2 4 3 3 3 4 4 5 3 3 3 5 7 6 10 11
9 6 7 8 12 18 20 22 20 10 7 7 6 6 7 12 10 10 11 8 5 2 1 1 3 3 4 4 5 4 3 3 4 2 2 3 1 3 3 4 10 11 10
10 10 11 7 11 12 2 13 12 6 6 7 7 6 6 6 9 6 6 6 5 7 8 4 5 4 5 4 4 6 5 4 4 5 3 4 1 3 2 1 8 11 10
12 11 10 11 13 4 8 5 2 5 2 8 8 7 6 7 8 9 8 6 6 7 8 6 7 8 6 7 5 4 4 6 6 6 5 6 3 3 3 4 5 12 14
12 13 12 14 10 11 10 6 2 4 5 5 6 7 7 8 11 12 6 6 4 3 4 10 11 8 10 10 10 3 5 6 8 6 4 4 2 2 3 3 3 7 8
12 11 13 14 10 13 15 11 7 3 1 7 7 7 11 9 13 12 7 6 5 6 4 3 2 5 8 10 16 8 6 8 6 7 6 4 3 3 2 3 6 5 5
Wind_Direction
200 196 189 192 180 176 190 210 206 199 205 224 242 236 226 229 289 339 158 188 191 188 196 202 213 222 215 211 207 214 213 217 213 223 224 227 231 237 237 239 235 229 218
207 182 193 212 182 194 181 193 192 205 183 218 242 222 241 246 248 231 257 173 203 203 205 202 209 215 214 201 203 209 212 215 219 220 220 223 230 235 237 246 241 238 231
203 196 187 209 217 189 194 174 198 167 169 223 240 251 224 223 208 221 214 244 197 206 214 214 212 209 213 204 199 205 213 214 217 223 222 221 220 229 235 237 248 243 237
197 188 185 206 207 213 190 187 166 171 182 220 227 210 204 215 204 182 176 226 247 182 206 220 217 216 215 208 203 203 212 212 216 221 224 227 220 227 232 229 237 245 240
198 193 212 205 203 205 199 177 179 168 218 226 213 195 221 225 201 206 234 246 276 256 221 201 212 213 219 215 204 207 213 213 213 219 219 223 230 222 232 230 234 239 242
191 196 199 229 200 208 212 186 200 191 192 197 226 205 219 221 190 210 209 209 232 245 202 216 200 222 221 218 206 207 216 220 217 218 217 219 225 224 229 232 229 234 237
188 188 202 202 225 214 208 206 209 206 192 170 154 288 271 226 218 240 253 208 203 248 212 193 227 219 223 215 217 204 218 212 220 221 220 214 218 221 223 222 218 223 231
189 198 197 207 211 222 203 210 199 193 186 179 167 132 237 285 192 218 236 197 144 238 189 192 198 230 187 209 218 215 213 231 222 220 219 217 220 227 230 236 220 223 223
188 195 203 205 211 218 210 203 196 187 192 190 182 159 205 205 154 209 216 215 195 209 212 193 198 192 193 225 223 211 216 219 228 228 229 221 223 233 231 235 234 218 227
199 188 202 198 209 209 215 201 206 202 191 193 197 215 240 183 179 201 224 215 190 181 216 214 206 221 296 279 262 228 195 210 219 225 231 228 226 233 239 240 223 220 226
232 205 199 196 202 209 202 196 195 199 200 197 199 200 223 222 256 228 198 191 183 188 210 199 205 202 230 292 279 271 268 222 213 212 228 232 233 234 238 241 225 216 214
236 221 218 224 208 199 201 202 197 197 201 208 202 198 190 191 192 194 214 237 214 243 221 221 194 187 212 240 267 277 258 242 233 217 219 233 230 237 246 250 228 223 215
286 203 214 207 206 206 199 198 195 198 203 203 207 211 207 202 182 194 202 219 224 235 227 198 184 211 239 225 238 256 271 275 231 246 239 229 232 236 237 248 258 233 224
272 280 255 231 214 197 191 205 197 198 203 208 204 203 212 206 214 209 189 200 244 245 247 200 206 226 234 254 256 265 275 232 226 230 235 225 236 238 234 225 237 240 232
275 269 283 246 185 94 279 225 196 202 213 210 201 204 205 212 216 222 216 197 169 241 256 226 217 214 232 226 243 263 248 239 245 251 239 231 225 235 230 221 224 231 237
273 284 279 270 205 181 212 215 209 206 214 228 229 207 208 204 205 222 241 162 156 187 249 232 210 204 186 213 235 256 256 264 250 245 248 246 240 238 233 222 227 227 224
319 280 278 281 251 221 219 222 240 215 127 310 257 216 193 187 216 213 213 179 182 178 228 261 231 256 239 254 277 237 238 257 263 271 269 258 245 248 237 225 227 230 225
341 347 340 293 267 230 191 173 223 242 213 210 219 207 181 165 192 208 192 201 185 209 211 241 239 243 250 247 265 265 261 249 254 266 271 268 256 243 233 234 223 216 217
339 326 332 327 327 244 186 191 192 191 203 236 202 172 175 169 190 210 219 234 216 229 236 243 259 247 248 246 260 255 234 249 249 260 266 265 262 244 230 222 215 209 209
316 331 291 324 299 299 176 190 195 192 196 205 170 162 151 163 175 187 213 231 206 233 250 209 228 241 242 250 235 248 259 233 260 256 265 258 277 236 242 225 211 202 194
262 287 311 310 301 325 234 172 179 163 154 168 142 148 132 113 130 155 177 95 95 61 347 328 328 349 318 342 274 263 253 261 270 232 262 279 209 208 219 225 219 200 197
253 238 240 244 316 324 323 36 322 127 126 118 117 88 108 113 111 112 112 110 112 119 247 309 303 306 295 321 324 323 328 315 303 263 232 300 349 250 229 188 193 192 202
250 229 250 238 240 257 260 50 333 48 114 116 120 122 154 147 130 135 152 166 184 213 220 204 244 247 275 279 294 302 286 282 267 283 299 269 172 268 251 210 226 190 183
237 247 239 252 263 232 167 171 50 47 314 138 150 161 183 154 155 170 164 180 207 214 213 213 222 243 244 255 257 265 267 278 273 269 254 252 190 251 298 122 144 156 166
260 240 241 234 207 265 199 164 151 81 358 169 166 172 162 165 176 178 161 173 214 242 256 221 224 259 283 282 264 271 275 269 279 280 254 204 161 255 193 124 121 140 145
297 279 245 253 222 221 200 180 188 151 243 258 187 188 190 183 164 169 169 177 226 240 236 311 312 282 269 261 252 213 234 250 263 290 220 182 141 67 265 132 141 154 155